Hourly Weather Sudykha

Today, 18 January, Monday

Time Temperature Precipitation Wind Pressure Humidity
00:00 -15°C° 0.2 mm 2 mps 748 mmHg 91%
01:00 -15°C° 0.2 mm 2 mps 747 mmHg 92%
02:00 -15°C° 0.2 mm 2 mps 747 mmHg 93%
03:00 -15°C° 0.2 mm 2 mps 747 mmHg 93%
04:00 -15°C° 0.2 mm 2 mps 747 mmHg 93%
05:00 -15°C° 0.2 mm 2 mps 747 mmHg 94%
06:00 -15°C° 0.1 mm 2 mps 748 mmHg 94%
07:00 -15°C° 0.1 mm 2 mps 748 mmHg 94%
08:00 -15°C° 0.1 mm 2 mps 748 mmHg 94%
09:00 -14°C° 0 mm 2 mps 749 mmHg 92%
10:00 -12°C° 0 mm 1 mps 749 mmHg 89%
11:00 -11°C° 0 mm 1 mps 749 mmHg 87%
12:00 -11°C° 0 mm 1 mps 749 mmHg 87%
13:00 -11°C° 0 mm 1 mps 749 mmHg 87%
14:00 -10°C° 0 mm 1 mps 748 mmHg 86%
15:00 -11°C° 0.1 mm 1 mps 749 mmHg 89%
16:00 -11°C° 0.1 mm 1 mps 749 mmHg 92%
17:00 -14°C° 0.1 mm 2 mps 749 mmHg 95%
18:00 -14°C° 0.1 mm 2 mps 749 mmHg 95%
19:00 -14°C° 0.1 mm 2 mps 749 mmHg 95%
20:00 -14°C° 0.1 mm 2 mps 749 mmHg 95%
21:00 -14°C° 0.1 mm 2 mps 750 mmHg 95%
22:00 -15°C° 0.1 mm 2 mps 750 mmHg 95%
23:00 -15°C° 0.1 mm 2 mps 750 mmHg 95%

Tomorrow, 19 January, Tuesday

Time Temperature Precipitation Wind Pressure Humidity
00:00 -16°C° 0 mm 2 mps 750 mmHg 95%
01:00 -16°C° 0 mm 2 mps 750 mmHg 95%
02:00 -17°C° 0 mm 2 mps 750 mmHg 95%
03:00 -17°C° 0 mm 2 mps 750 mmHg 96%
04:00 -17°C° 0 mm 2 mps 750 mmHg 96%
05:00 -19°C° 0 mm 3 mps 750 mmHg 96%
06:00 -18°C° 0 mm 2 mps 750 mmHg 96%
07:00 -18°C° 0 mm 2 mps 751 mmHg 96%
08:00 -18°C° 0 mm 2 mps 751 mmHg 96%
09:00 -17°C° 0 mm 2 mps 751 mmHg 93%
10:00 -16°C° 0 mm 2 mps 751 mmHg 91%
11:00 -15°C° 0 mm 2 mps 751 mmHg 88%
12:00 -15°C° 0 mm 2 mps 751 mmHg 88%
13:00 -16°C° 0 mm 3 mps 751 mmHg 88%
14:00 -15°C° 0 mm 3 mps 751 mmHg 88%
15:00 -16°C° 0 mm 3 mps 751 mmHg 90%
16:00 -16°C° 0 mm 2 mps 751 mmHg 92%
17:00 -17°C° 0 mm 2 mps 751 mmHg 94%
18:00 -18°C° 0 mm 2 mps 752 mmHg 95%
19:00 -18°C° 0 mm 2 mps 752 mmHg 95%
20:00 -17°C° 0 mm 1 mps 752 mmHg 96%
21:00 -17°C° 0 mm 1 mps 752 mmHg 96%
22:00 -19°C° 0 mm 2 mps 752 mmHg 96%
23:00 -19°C° 0 mm 2 mps 753 mmHg 96%

Day after tomorrow, 20 January, Wednesday

Time Temperature Precipitation Wind Pressure Humidity
00:00 -19°C° 0 mm 2 mps 753 mmHg 96%
01:00 -20°C° 0 mm 2 mps 753 mmHg 96%
02:00 -20°C° 0 mm 2 mps 753 mmHg 97%
03:00 -18°C° 0 mm 1 mps 753 mmHg 97%
04:00 -18°C° 0 mm 1 mps 753 mmHg 97%
05:00 -18°C° 0 mm 1 mps 753 mmHg 96%
06:00 -18°C° 0 mm 1 mps 753 mmHg 96%
07:00 -18°C° 0 mm 1 mps 753 mmHg 96%
08:00 -18°C° 0 mm 1 mps 754 mmHg 96%
09:00 -17°C° 0 mm 1 mps 754 mmHg 93%
10:00 -15°C° 0 mm 1 mps 754 mmHg 91%
11:00 -14°C° 0 mm 1 mps 754 mmHg 89%
12:00 -13°C° 0 mm 1 mps 754 mmHg 88%
13:00 -13°C° 0 mm 1 mps 754 mmHg 88%
14:00 -12°C° 0 mm 1 mps 754 mmHg 87%
15:00 -15°C° 0 mm 2 mps 754 mmHg 89%
16:00 -16°C° 0 mm 2 mps 754 mmHg 91%
17:00 -17°C° 0 mm 2 mps 755 mmHg 92%
18:00 -17°C° 0 mm 2 mps 755 mmHg 92%
19:00 -19°C° 0 mm 3 mps 755 mmHg 92%
20:00 -19°C° 0 mm 3 mps 755 mmHg 92%
21:00 -19°C° 0 mm 3 mps 755 mmHg 92%
22:00 -19°C° 0 mm 3 mps 755 mmHg 91%
23:00 -19°C° 0 mm 3 mps 755 mmHg 90%

21 January, Thursday

Time Temperature Precipitation Wind Pressure Humidity
00:00 -18°C° 0 mm 3 mps 755 mmHg 90%
01:00 -17°C° 0 mm 3 mps 755 mmHg 89%
02:00 -18°C° 0 mm 4 mps 755 mmHg 89%
03:00 -17°C° 0 mm 4 mps 754 mmHg 91%
04:00 -16°C° 0 mm 4 mps 754 mmHg 93%
05:00 -15°C° 0 mm 4 mps 754 mmHg 94%
06:00 -14°C° 0 mm 4 mps 754 mmHg 94%
07:00 -12°C° 0 mm 4 mps 754 mmHg 95%
08:00 -11°C° 0 mm 4 mps 754 mmHg 95%
09:00 -10°C° 0 mm 5 mps 754 mmHg 95%
10:00 -8°C° 0 mm 5 mps 754 mmHg 94%
11:00 -6°C° 0 mm 5 mps 754 mmHg 94%
12:00 -6°C° 0 mm 5 mps 754 mmHg 94%
13:00 -5°C° 0 mm 5 mps 753 mmHg 94%
14:00 -4°C° 0 mm 5 mps 753 mmHg 94%
15:00 -4°C° 0 mm 5 mps 753 mmHg 95%
16:00 -2°C° 0 mm 5 mps 753 mmHg 95%
17:00 -2°C° 0 mm 5 mps 753 mmHg 95%
18:00 -2°C° 0 mm 5 mps 753 mmHg 95%
19:00 -2°C° 0 mm 5 mps 753 mmHg 95%
20:00 -1°C° 0 mm 4 mps 753 mmHg 95%
21:00 -1°C° 0 mm 5 mps 752 mmHg 96%
22:00 -1°C° 0 mm 5 mps 752 mmHg 96%
23:00 -1°C° 0 mm 5 mps 752 mmHg 96%

22 January, Friday

Time Temperature Precipitation Wind Pressure Humidity
00:00 -1°C° 0 mm 5 mps 752 mmHg 96%
01:00 -1°C° 0 mm 4 mps 752 mmHg 96%
02:00 -1°C° 0 mm 4 mps 752 mmHg 96%
03:00 -1°C° 0 mm 5 mps 751 mmHg 96%
04:00 -1°C° 0 mm 5 mps 751 mmHg 96%
05:00 -1°C° 0 mm 5 mps 751 mmHg 96%
06:00 -1°C° 0 mm 5 mps 751 mmHg 96%
07:00 -1°C° 0 mm 5 mps 751 mmHg 97%
08:00 -1°C° 0 mm 5 mps 751 mmHg 97%
09:00 0°C° 0 mm 5 mps 751 mmHg 98%
10:00 0°C° 0 mm 5 mps 751 mmHg 99%
11:00 0°C° 0 mm 5 mps 751 mmHg 99%
12:00 0°C° 0 mm 5 mps 750 mmHg 99%
13:00 0°C° 0 mm 5 mps 750 mmHg 99%
14:00 0°C° 0 mm 5 mps 750 mmHg 99%
15:00 0°C° 0 mm 5 mps 750 mmHg 99%
16:00 0°C° 0 mm 4 mps 750 mmHg 99%
17:00 0°C° 0 mm 4 mps 750 mmHg 98%
18:00 0°C° 0 mm 4 mps 749 mmHg 97%
19:00 -1°C° 0 mm 4 mps 749 mmHg 96%
20:00 -1°C° 0 mm 4 mps 749 mmHg 95%
21:00 -1°C° 0 mm 4 mps 749 mmHg 95%
22:00 -1°C° 0 mm 4 mps 749 mmHg 95%
23:00 -1°C° 0 mm 4 mps 749 mmHg 95%

23 January, Saturday

Time Temperature Precipitation Wind Pressure Humidity
00:00 -1°C° 0 mm 4 mps 749 mmHg 95%
01:00 0°C° 0 mm 4 mps 748 mmHg 96%
02:00 0°C° 0 mm 5 mps 748 mmHg 96%
03:00 0°C° 0 mm 5 mps 748 mmHg 97%
04:00 0°C° 0 mm 5 mps 748 mmHg 97%
05:00 0°C° 0 mm 5 mps 747 mmHg 97%
06:00 0°C° 0 mm 5 mps 747 mmHg 97%
07:00 0°C° 0 mm 5 mps 747 mmHg 97%
08:00 0°C° 0 mm 5 mps 747 mmHg 96%
09:00 0°C° 0 mm 5 mps 747 mmHg 97%
10:00 +1°C° 0 mm 5 mps 747 mmHg 98%
11:00 +1°C° 0 mm 5 mps 747 mmHg 99%
12:00 +1°C° 0 mm 5 mps 747 mmHg 99%
13:00 +2°C° 0 mm 5 mps 746 mmHg 98%
14:00 +2°C° 0 mm 5 mps 746 mmHg 98%
15:00 +2°C° 0 mm 5 mps 746 mmHg 98%
16:00 +2°C° 0 mm 5 mps 746 mmHg 97%
17:00 +2°C° 0 mm 5 mps 746 mmHg 97%
18:00 +2°C° 0 mm 5 mps 746 mmHg 97%
19:00 +2°C° 0 mm 5 mps 746 mmHg 96%
20:00 +2°C° 0 mm 5 mps 746 mmHg 96%
21:00 +2°C° 0 mm 5 mps 746 mmHg 95%
22:00 +2°C° 0 mm 5 mps 746 mmHg 94%
23:00 +2°C° 0 mm 5 mps 746 mmHg 93%
Show more